This demonstration page uses our WeatherBlox Daily Observations layout. Learn more.

Left ArrowRight Arrow

41.12389, -100.76542

Hourly Observations for January 4, 2019

Temp ( °F °C ) Dew Point ( °F °C ) Humidity (%) Winds ( mph kmh ) Pressure ( in mb ) Visibility ( mi km ) Precip ( " mm )
12:53 am 00:53 Clear 25 -3.9 21 -6.1 85 85 NNW 9 15 29.96 1015 10 16 0.00 0.00
1:53 am 01:53 Clear 25 -3.9 21 -6.1 85 85 NNW 9 15 29.95 1014 10 16 0.00 0.00
2:53 am 02:53 Clear 25 -3.9 21 -6.1 85 85 NNW 10 17 29.95 1014 10 16 0.00 0.00
3:53 am 03:53 Clear 27 -2.8 22 -5.6 81 81 NW 10 17 29.93 1014 10 16 0.00 0.00
4:53 am 04:53 Clear 26 -3.3 22 -5.6 84 84 NW 9 15 29.92 1013 10 16 0.00 0.00
5:53 am 05:53 Clear 26 -3.3 22 -5.6 84 84 NW 8 13 29.95 1014 10 16 0.00 0.00
6:53 am 06:53 Clear 23 -5 20 -6.7 88 88 NW 8 13 29.97 1015 10 16 0.00 0.00
7:53 am 07:53 Clear 24 -4.4 20 -6.7 84 84 NNW 7 11 29.98 1015 10 16 0.00 0.00
8:53 am 08:53 Sunny 29 -1.7 23 -5 78 78 NW 10 17 29.99 1016 10 16 0.00 0.00
9:53 am 09:53 Sunny 35 1.7 27 -2.8 72 72 NW 6 9 30.00 1016 10 16 0.00 0.00
10:53 am 10:53 Sunny 41 5 28 -2.2 60 60 WNW 9 15 30.00 1016 10 16 0.00 0.00
11:53 am 11:53 Sunny 47 8.3 31 -0.6 54 54 NW 8 13 29.96 1015 10 16 0.00 0.00
12:53 pm 12:53 Sunny 54 12.2 32 0 43 43 NNW 12 19 29.92 1013 10 16 0.00 0.00
1:53 pm 13:53 Sunny 58 14.4 33 0.6 39 39 NNW 9 15 29.91 1013 10 16 0.00 0.00
2:53 pm 14:53 Sunny 60 15.6 35 1.7 39 39 NW 7 11 29.90 1013 10 16 0.00 0.00
3:53 pm 15:53 Sunny 60 15.6 35 1.7 39 39 N 6 9 29.90 1013 10 16 0.00 0.00
4:53 pm 16:53 Sunny 56 13.3 33 0.6 42 42 Calm 29.92 1013 10 16 0.00 0.00
5:53 pm 17:53 Clear 41 5 31 -0.6 67 67 N 3 6 29.96 1015 10 16 0.00 0.00
6:53 pm 18:53 Clear 35 1.7 28 -2.2 76 76 Calm 29.99 1016 10 16 0.00 0.00
7:53 pm 19:53 Clear 34 1.1 28 -2.2 79 79 Calm 30.00 1016 10 16 0.00 0.00
8:53 pm 20:53 Clear 30 -1.1 26 -3.3 85 85 Calm 30.00 1016 10 16 0.00 0.00
9:53 pm 21:53 Clear 28 -2.2 24 -4.4 85 85 NW 3 6 30.00 1016 10 16 0.00 0.00
10:53 pm 22:53 Clear 27 -2.8 25 -3.9 92 92 Calm 29.98 1015 10 16 0.00 0.00
11:53 pm 23:53 Clear 26 -3.3 23 -5 88 88 WNW 5 7 29.98 1015 10 16 0.00 0.00

Powered by AerisWeather